TimePDT,TemperatureF,Dew PointF,Humidity,Sea Level PressureIn,VisibilityMPH,Wind Direction,Wind SpeedMPH,Gust SpeedMPH,PrecipitationIn,Events,Conditions,WindDirDegrees,DateUTC
12:53 AM,70.0,43.0,38,29.86,10.0,NNW,9.2,-,N/A,,Clear,330,2013-05-08 07:53:00
1:53 AM,69.1,43.0,39,29.86,10.0,NNW,6.9,-,N/A,,Clear,340,2013-05-08 08:53:00
2:53 AM,62.1,44.1,52,29.88,10.0,WSW,4.6,-,N/A,,Clear,240,2013-05-08 09:53:00
3:53 AM,61.0,43.0,52,29.89,10.0,West,6.9,-,N/A,,Clear,270,2013-05-08 10:53:00
4:53 AM,54.0,43.0,66,29.90,10.0,West,5.8,-,N/A,,Clear,260,2013-05-08 11:53:00
5:53 AM,50.0,42.1,74,29.91,10.0,WSW,5.8,-,N/A,,Clear,250,2013-05-08 12:53:00
6:53 AM,57.0,45.0,64,29.93,10.0,West,5.8,-,N/A,,Clear,280,2013-05-08 13:53:00
7:53 AM,64.9,46.0,50,29.95,10.0,West,8.1,-,N/A,,Clear,280,2013-05-08 14:53:00
8:53 AM,72.0,44.1,37,29.95,10.0,North,4.6,-,N/A,,Clear,350,2013-05-08 15:53:00
9:53 AM,77.0,43.0,30,29.95,10.0,Calm,Calm,-,N/A,,Clear,0,2013-05-08 16:53:00
10:53 AM,80.1,41.0,25,29.95,10.0,Calm,Calm,-,N/A,,Clear,0,2013-05-08 17:53:00
11:53 AM,84.0,44.1,25,29.94,10.0,Calm,Calm,-,N/A,,Clear,0,2013-05-08 18:53:00
12:53 PM,88.0,43.0,21,29.93,10.0,Calm,Calm,-,N/A,,Clear,0,2013-05-08 19:53:00
1:53 PM,88.0,43.0,21,29.92,10.0,Calm,Calm,-,N/A,,Partly Cloudy,0,2013-05-08 20:53:00
2:53 PM,91.9,37.9,15,29.92,10.0,Calm,Calm,-,N/A,,Clear,0,2013-05-08 21:53:00
3:53 PM,93.0,32.0,12,29.90,10.0,NE,5.8,-,N/A,,Clear,40,2013-05-08 22:53:00
4:53 PM,93.0,28.0,10,29.89,10.0,NNE,4.6,-,N/A,,Clear,30,2013-05-08 23:53:00
5:53 PM,91.9,26.1,9,29.89,10.0,Calm,Calm,-,N/A,,Clear,0,2013-05-09 00:53:00
6:53 PM,91.0,28.9,11,29.88,10.0,Calm,Calm,-,N/A,,Clear,0,2013-05-09 01:53:00
7:53 PM,81.0,43.0,26,29.90,10.0,NW,11.5,-,N/A,,Clear,320,2013-05-09 02:53:00
8:53 PM,78.1,42.1,28,29.93,10.0,WSW,3.5,-,N/A,,Clear,240,2013-05-09 03:53:00
9:53 PM,75.9,41.0,29,29.96,10.0,NW,8.1,-,N/A,,Clear,310,2013-05-09 04:53:00
10:53 PM,73.9,42.1,32,29.97,10.0,NNW,6.9,-,N/A,,Clear,340,2013-05-09 05:53:00
11:53 PM,73.0,41.0,31,29.98,10.0,NNW,10.4,-,N/A,,Clear,330,2013-05-09 06:53:00